Weather in Viljandi

Estonia     58°21′37″N   25°35′08″E
temp.,
°C
wind,
m/s
gust,
m/s
humid.,
%
clouds,
%
prec.,
mm/h
press.,
hPa
HPBL,
m
18 august, thu
thu1800:00+20sse2574100 0.0 101583
03:00+19sse227262 0.0 101635
06:00+17ese227811 0.0 101630
09:00+23se246242 0.0 1017245
12:00+28sse3444100 0.0 1017997
15:00+31s243611 0.0 10172013
18:00+30sse34375 0.0 10161297
21:00+23se366183 0.0 101799
19 august, fri
fri1900:00+21se287167 0.0 1018141
03:00+19sse2680100 0.0 1018109
06:00+19se2777100 0.0 1018134
09:00+23sse3864100 0.0 1020280
12:00+28se464499 0.0 1019933
15:00+30se463736 0.0 10192036
18:00+29se46405 0.0 10181927
21:00+22ese39655 0.0 1019169
20 august, sat
sat2000:00+20se311695 0.0 1018255
03:00+19se412682 0.0 1019355
06:00+18se412730 0.0 1019354
09:00+20se59690 0.0 1019529
12:00+24se68515 0.0 10181152
15:00+26se684282 0.0 10171859
18:00+25sse3650100 0.0 10171689
21:00+21ese41064100 0.0 1017416
21 august, sun
sun2100:00+18ese3108166 0.0 1016316
03:00+15se399587 0.0 1016239
06:00+16se399276 0.0 1016291
09:00+19sse367398 0.0 1016446
12:00+24sse4554100 0.0 10151012
15:00+24sse455188 0.1 10141018
18:00+25sse345286 0.0 10141078
21:00+20s227492 0.1 101530
22 august, mon
mon2200:00+20se277364 0.0 1014176
03:00+17se27866 0.0 1014151
06:00+17se39885 0.0 1015186
09:00+21se37685 0.0 1015359
12:00+26sse46485 0.0 10141027
15:00+29sse464023 0.0 10132283
18:00+29sse454148 0.0 10131663
21:00+21se310575 0.0 1014209